Location: Ellerstadt
(49.4644°N, 8.2615°E)
Time: 05:12:48
(UTC+00:00)

Cosmos 2278 Rocket - Pass Details

Date: 03 March 2021
Orbit: 841 x 845 km, 71.0° (Epoch: 11 April)

Event Time Altitude Azimuth Distance (km) Brightness Sun altitude
Rises 20:23:30 0° 329° (NNW) 3,416 6.2 -30.7°
Reaches altitude 10° 20:25:59 10° 327° (NNW) 2,476 5.3 -31.1°
Enters shadow 20:30:48 59° 290° (WNW) 975 2.6 -31.8°
